This demonstration page uses our WeatherBlox Daily Observations layout. Learn more.

Left ArrowRight Arrow

36.17497, -115.13722

Hourly Observations for January 16, 2017

Temp ( °F °C ) Dew Point ( °F °C ) Humidity (%) Winds ( mph kmh ) Pressure ( in mb ) Visibility ( mi km ) Precip ( " mm )
12:53 am 00:53 Clear 45 7.2 31 -0.6 58 58 S 5 7 30.10 1019 10 16 N/A
1:53 am 01:53 Clear 44 6.7 29 -1.7 55 55 N N/A 30.11 1020 10 16 N/A
2:53 am 02:53 Clear 44 6.7 30 -1.1 58 58 N N/A 30.12 1020 10 16 N/A
3:53 am 03:53 Clear 43 6.1 30 -1.1 60 60 S 5 7 30.12 1020 10 16 N/A
4:53 am 04:53 Clear 41 5 30 -1.1 65 65 N N/A 30.13 1020 10 16 N/A
5:53 am 05:53 Clear 43 6.1 29 -1.7 58 58 WNW 8 13 30.16 1021 10 16 N/A
6:53 am 06:53 Sunny 44 6.7 24 -4.4 45 45 NNW 8 13 30.16 1021 10 16 N/A
7:53 am 07:53 Sunny 44 6.7 24 -4.4 45 45 N 9 15 30.19 1022 10 16 N/A
8:53 am 08:53 Sunny 47 8.3 22 -5.6 37 37 N 16 26 30.21 1023 10 16 N/A
9:53 am 09:53 Sunny 49 9.4 20 -6.7 32 32 N 20 31 30.22 1024 10 16 N/A
10:53 am 10:53 Sunny 52 11.1 17 -8.3 25 25 N 20 31 30.21 1023 10 16 N/A
11:53 am 11:53 Sunny 53 11.7 17 -8.3 24 24 N 9 15 30.17 1022 10 16 N/A
12:53 pm 12:53 Sunny 54 12.2 16 -8.9 22 22 N 12 19 30.14 1021 10 16 N/A
1:53 pm 13:53 Sunny 55 12.8 14 -10 20 20 N 7 11 30.11 1020 10 16 N/A
2:53 pm 14:53 Sunny 56 13.3 14 -10 19 19 N 9 15 30.11 1020 10 16 N/A
3:53 pm 15:53 Sunny 56 13.3 16 -8.9 21 21 ENE 7 11 30.12 1020 10 16 N/A
4:53 pm 16:53 Clear 54 12.2 15 -9.4 21 21 N 8 13 30.14 1021 10 16 N/A
5:53 pm 17:53 Clear 51 10.6 16 -8.9 25 25 NNE 6 9 30.15 1021 10 16 N/A
6:53 pm 18:53 Clear 50 10 18 -7.8 28 28 NNE 7 11 30.16 1021 10 16 N/A
7:53 pm 19:53 Clear 48 8.9 18 -7.8 30 30 ENE 7 11 30.18 1022 10 16 N/A
8:53 pm 20:53 Clear 46 7.8 19 -7.2 34 34 N 6 9 30.19 1022 10 16 N/A
9:53 pm 21:53 Clear 47 8.3 18 -7.8 31 31 N 14 22 30.18 1022 10 16 N/A
10:53 pm 22:53 Clear 44 6.7 19 -7.2 37 37 N 5 7 30.19 1022 10 16 N/A
11:53 pm 23:53 Clear 45 7.2 18 -7.8 34 34 WNW 5 7 30.19 1022 10 16 N/A

Powered by AerisWeather